Kars, Turkey

11:49 AM +03 on January 21, 2018 (GMT +0300)
Kars

Weather History for LTCF - December, 2012

Change the Weather History Date:

Thursday, December 27, 2012

  Actual Average Record
Temperature  
Mean Temperature -4 °F -  
Max Temperature 10 °F 24 °F - ()
Min Temperature -17 °F 7 °F - ()
Degree Days  
Heating Degree Days 68    
Moisture  
Dew Point -10 °F    
Average Humidity 82    
Maximum Humidity 100    
Minimum Humidity 77    
Precipitation  
Precipitation 0.00 in 0.02 in - ()
Sea Level Pressure  
Sea Level Pressure 30.39 in    
Wind  
Wind Speed 0 mph ()    
Max Wind Speed 5 mph    
Max Gust Speed -    
Visibility 3.9 miles    
Events      
T = Trace of Precipitation, MM = Missing Value Source: Averaged Metar Reports

Daily Weather History Graph

Daily Weather History Graph

Search for Another Location

Airport or City:

Trip Planner

Search our weather history database for the weather conditions in past years. The results will help you decide how hot, cold, wet, or windy it might be!

Date:

Astronomy

Dec. 27, 2012 Rise Set
Actual Time 6:30 AM EET 3:47 PM EET
Civil Twilight 5:59 AM EET 4:18 PM EET
Nautical Twilight 5:24 AM EET 4:52 PM EET
Astronomical Twilight 4:51 AM EET 5:25 PM EET
Moon 3:11 PM EET (12/27) 5:23 AM EET (12/27)
Length of Visible Light 10h 19m
Length of Day
9h 17m
Waxing Gibbous, 99% of the Moon is Illuminated
Dec 27
Waxing Gibbous
Dec 28
Full
Jan 5
Last Quarter
Jan 11
New
Jan 19
First Quarter

Hourly Weather History & Observations

Time (EET) Temp. Windchill Dew Point Humidity Pressure Visibility Wind Dir Wind Speed Gust Speed Precip Events Conditions
12:50 AM -11.2 °F - -16.6 °F 77% 30.39 in 1.2 mi Calm Calm - N/A   Mist
1:50 AM -13.0 °F - -18.4 °F 77% 30.39 in 2.5 mi Calm Calm - N/A   Mist
2:00 AM -14 °F - -14 °F 100%  in 2 mi Calm Calm - -   Mist
2:50 AM -13.0 °F - -18.4 °F 77% 30.39 in 3.1 mi Calm Calm - N/A   Mist
3:50 AM -14.8 °F - -18.4 °F 84% 30.39 in 3.7 mi WNW 2.3 mph - N/A   Unknown
4:50 AM -13.0 °F - -18.4 °F 77% 30.39 in 3.7 mi Calm Calm - N/A   Unknown
5:50 AM -13.0 °F - -18.4 °F 77% 30.39 in 3.7 mi Calm Calm - N/A   Unknown
6:50 AM -14.8 °F - -18.4 °F 84% 30.39 in 5.0 mi Calm Calm - N/A   Unknown
7:50 AM -9.4 °F - -14.8 °F 77% 30.42 in - Calm Calm - N/A   Clear
8:00 AM -10 °F - -11 °F 90%  in 6 mi Calm Calm - -  
8:50 AM -4.0 °F - -7.6 °F 85% 30.42 in - Calm Calm - N/A   Clear
9:50 AM -0.4 °F - -4.0 °F 85% 30.42 in - Calm Calm - N/A   Clear
10:50 AM 3.2 °F - -2.2 °F 78% 30.39 in - Calm Calm - N/A   Clear
11:50 AM 6.8 °F - 3.2 °F 85% 30.39 in - Calm Calm - N/A   Clear
12:50 PM 5.0 °F -4.1 °F 1.4 °F 85% 30.39 in - NW 4.6 mph - N/A   Clear
1:50 PM 5.0 °F - -0.4 °F 78% 30.39 in - South 2.3 mph - N/A   Clear
2:00 PM 4 °F - 3 °F 91%  in 6 mi South 2.3 mph - -  
2:50 PM 6.8 °F - 3.2 °F 85% 30.39 in - Calm Calm - N/A   Clear
3:50 PM 1.4 °F - -2.2 °F 85% 30.39 in - Calm Calm - N/A   Clear
4:50 PM -0.4 °F - -4.0 °F 85% 30.39 in - Calm Calm - N/A   Clear
5:50 PM -2.2 °F - -7.6 °F 78% 30.39 in - NW 1.2 mph - N/A   Clear
6:50 PM -5.8 °F - -11.2 °F 77% 30.39 in - Calm Calm - N/A   Clear
8:00 PM -10 °F - -11 °F 90%  in 6 mi WNW 3.5 mph - -  
8:50 PM -11.2 °F - -16.6 °F 77% 30.39 in - Calm Calm - N/A   Clear
10:50 PM -11.2 °F - -16.6 °F 77% 30.36 in - West 1.2 mph - N/A   Clear
11:50 PM -14.8 °F - -18.4 °F 84% 30.36 in - Calm Calm - N/A   Clear